Regional Weather Roundup
Issued by NWS

Home | Current Version | Previous Version | Graphics & Text | Print | Product List | Glossary Off
Versions: 1 2 3 4 5 6 7 8 9 10 11 12 13 14 15 16 17 18 19 20 21 22 23 24 25 26 27 28 29 30 31 32 33 34 35 36 37 38 39 40 41 42 43 44 45 46 47 48 49 50

000
ASUS43 KTOP 041308
RWRKS

WEATHER ROUNDUP FOR KANSAS
NATIONAL WEATHER SERVICE GOODLAND KS
800 AM CDT TUE AUG 04 2015

NOTE:  "FAIR" INDICATES FEW OR NO CLOUDS BELOW 12,000 FEET WITH NO
SIGNIFICANT WEATHER AND/OR OBSTRUCTIONS TO VISIBILITY.

KSZ001>006-013>018-027>032-041>047-041400-
NORTHWEST KANSAS

CITY           SKY/WX    TMP DP  RH WIND       PRES   REMARKS
GOODLAND       SUNNY     64  60  87 SE6       29.97S
HAYS           PTSUNNY   72  63  73 S8        29.94S
HILL CITY      MOSUNNY   72  67  84 CALM      29.95R
RUSSELL        CLOUDY    73  68  84 S8        29.93R
$$

KSZ061>065-074>080-084>089-041400-
SOUTHWEST KANSAS

CITY           SKY/WX    TMP DP  RH WIND       PRES   REMARKS
DODGE CITY     CLOUDY    69  65  86 S8        29.98R
ELKHART          N/A     66  60  81 W8          N/A
GARDEN CITY    MOSUNNY   68  63  84 S8        29.96S
GREAT BEND     CLOUDY    72  66  83 S7        29.95S
LIBERAL        MOSUNNY   70  63  78 CALM      29.99S
PRATT          CLOUDY    70  64  83 SW8       29.96S
$$

KSZ066>073-081>083-090>101-041400-
SOUTHEAST KANSAS

CITY           SKY/WX    TMP DP  RH WIND       PRES   REMARKS
CHANUTE        CLOUDY    72  68  87 SE6       29.97S
COFFEYVILLE    CLOUDY    73  69  87 SE3       29.96R
HUTCHINSON     CLOUDY    75  68  78 S8        29.95R
MEDICINE LODGE   N/A     71  66  84 S7        29.95R
NEWTON         CLOUDY    75  64  69 S8        29.98S
PARSONS        CLOUDY    73  69  87 E3        29.97S
WICHITA INTL   CLOUDY    74  69  85 S6        29.95R
WICHITA JABRA  CLOUDY    76  67  73 SW8       29.96R
WICHITA MCCONL CLOUDY    74  67  78 S7        29.96R
$$

KSZ007>012-019>026-033>040-048>060-102>105-041400-
NORTHEAST KANSAS

CITY           SKY/WX    TMP DP  RH WIND       PRES   REMARKS
CONCORDIA      PTSUNNY   71  70  96 S6        29.95F
EMPORIA        CLOUDY    72  68  87 E3        29.96S
LAWRENCE       CLOUDY    74  70  87 E3        29.96F
MANHATTAN      CLOUDY    74  70  87 CALM      29.95S
MARYSVILLE     MOSUNNY   72  68  88 S5        29.96S
OLATHE IND     CLOUDY    73  70  90 SE6       29.97F
OLATHE EXE     CLOUDY    72  69  90 S6        29.96F
SALINA         CLOUDY    75  68  78 SE3       29.95R
TOPEKA BILLARD PTSUNNY   74  71  91 CALM      29.96F
TOPEKA FORBES  CLOUDY    75  69  81 SE5       29.96F
$$


USA.gov is the U.S. government's official web portal to all federal, state and local government web resources and services.